Terug naar catalogus

KUIPER-00268

ActiefCommunicatieLEO
NORAD 67790·PAYLOAD·🇺🇸 United States

Gelanceerd Feb 12, 2026 vanaf Guiana Space Centre

Loading…

Volgende Passages (komende 24 uur)

TLE

VersSource: CelesTrak SupGP

Epoch: Sep 14, 2026, 21:13 UTC

1 67790C 26030AC  26257.88414352  .00004983  00000+0  65233-3 0  2579
2 67790  51.9032  74.0473 0000988 120.1231   3.5394 14.79924017    10

Volg KUIPER-00268 in realtime met AllMySat

Download on the App Store